Location: Bundtels
(46.8678°N, 7.2112°E)
Time: 10:08:29
(UTC+00:00)

Daily predictions for brighter satellites

Satellite Brightness Start Highest point End
(mag) Time Altitude Azimuth Time Altitude Azimuth Time Altitude Azimuth
Cosmos 1606 2.6 16:12:28 10° S 16:16:14 85° E 16:20:01 10° N
Lacrosse 5 rocket 2.9 16:14:38 10° NW 16:17:27 19° N 16:20:21 10° NE
Nadezhda 4 Rocket 4.1 16:11:47 10° N 16:18:04 63° ENE 16:24:20 10° SSE
CZ-4B R/B 4.2 16:16:10 10° ESE 16:20:14 22° ENE 16:24:15 10° N
ADEOS 4.1 16:15:20 10° S 16:20:32 67° WSW 16:25:46 10° NNW
CZ-2C R/B 4.1 16:20:14 10° NE 16:23:20 16° E 16:26:24 10° SE
Cosmos 540 Rocket 4.5 16:19:08 10° SSE 16:23:20 26° E 16:27:33 10° NE
CZ-4C R/B 3.5 16:17:17 10° NNW 16:23:28 35° NNE 16:30:41 10° E
Cosmos 1500 Rocket 3.8 16:19:10 10° N 16:23:30 48° ENE 16:27:45 10° SSE
CZ-4B R/B 2.8 16:23:00 10° SSE 16:27:05 79° ENE 16:30:58 10° N
SMAP 3.2 16:24:19 10° SE 16:28:48 51° ENE 16:33:20 10° N
Cosmos 1500 4.5 16:26:07 10° NNE 16:28:56 20° ENE 16:31:43 10° ESE
USA 305 3.9 16:25:14 10° WNW 16:29:06 33° N 16:32:56 10° NE
CZ-2C R/B 2.9 16:25:58 10° SSE 16:30:54 88° WSW 16:35:43 10° NNW
Cosmos 1092 Rocket 4.2 16:26:37 10° N 16:32:48 49° ENE 16:38:54 10° SSE
Cosmos 468 Rocket 4.2 16:27:54 10° S 16:32:53 52° ESE 16:37:56 10° NNE
Cosmos 1898 Rocket 3.6 16:29:14 10° NNW 16:34:26 58° ENE 16:39:33 10° SE
Cosmos 44 4.0 16:30:12 10° NW 16:34:53 57° WSW 16:39:17 10° SSE
Cosmos 1805 Rocket 4.0 16:30:58 10° N 16:35:01 37° ENE 16:39:03 10° SE
Sich 1 3.8 16:31:50 10° N 16:35:39 30° ENE 16:39:28 10° SE
Cosmos 1933 3.9 16:32:34 10° SSE 16:36:18 37° E 16:40:03 10° NNE
Cosmos 1842 Rocket 3.7 16:34:30 10° SSW 16:38:57 80° W 16:43:27 10° N
Cosmos 2221 2.9 16:34:48 10° SSW 16:39:03 68° W 16:43:22 10° N
PSLV R/B 4.1 16:38:44 10° SE 16:42:09 37° ENE 16:45:37 10° N
SL-08 R/B 3.9 16:40:50 10° N 16:45:29 58° WNW 16:50:02 10° SSW
Cosmos 2084 3.6 16:46:47 10° NW 16:51:05 79° SW 16:55:33 10° SE
Cosmos 1656 4.4 16:46:07 10° NNW 16:51:34 59° WSW 16:57:03 10° S
deb Chang Zheng 4 4.4 16:48:16 10° SE 16:51:58 29° ENE 16:55:42 10° N
AQUARIUS 4.1 16:47:55 10° SSE 16:52:23 74° ENE 16:56:53 10° N
Cosmos 1627 Rocket 4.5 16:47:25 10° N 16:53:33 59° ENE 16:59:34 10° SSE
FengYun 1-2 T 4.4 16:48:14 10° S 16:53:49 79° WSW 16:59:25 10° NNW
H-2A R/B 2.2 16:49:50 10° SE 16:54:48 48° ENE 16:59:39 10° N
Cosmos 2034 Rocket 4.1 16:49:35 10° S 16:55:45 81° W 17:01:57 10° N
NOSS 2-2 (C) 4.4 16:52:38 10° NNW 16:57:33 54° NE 17:04:23 10° ESE
ERBS 4.1 16:55:24 10° WNW 16:57:52 20° NNW 16:59:46 13° NNE
Cosmos 1666 3.7 16:55:38 10° NNE 16:58:40 23° ENE 17:01:40 10° SE
Cosmos 2322 Rocket 3.7 16:55:49 10° N 16:59:07 15° NE 17:00:05 15° NE
USA 306 4.0 16:57:33 10° WNW 17:01:22 31° N 17:03:44 18° NE
Cosmos 2279 Rocket 4.5 16:56:24 10° SSE 17:01:59 36° E 17:07:34 10° NNE
Cosmos 1697 Rocket 2.7 16:57:20 10° NNW 17:02:59 89° ENE 17:08:37 10° SSE
USA 267 3.4 16:58:13 14° NE 17:04:01 72° NNW 17:10:32 10° WSW
Cosmos 2369 3.7 17:00:37 10° NNW 17:06:21 66° ENE 17:12:02 10° SE
Cosmos 1980 Rocket 2.3 17:01:16 10° NNW 17:06:50 53° ENE 17:12:20 10° SE
Cosmos 1763 Rocket 3.6 17:02:39 10° SSW 17:07:43 77° WNW 17:12:51 10° NNE
COSMO-SKYMED 1 3.3 17:05:08 16° NE 17:08:04 33° E 17:11:58 10° SSE
MOS 1-B Rocket 4.2 17:02:35 10° NNE 17:08:21 53° E 17:14:48 10° S
Cosmos 1939 Rocket 3.6 17:04:30 10° S 17:08:34 57° W 17:12:37 10° NNW
SL-24 R/B - RUBIN 2 3.6 17:07:12 10° NNW 17:11:43 56° NE 17:15:48 11° SE
Meteor 1-25 Rocket 4.4 17:06:12 10° NNW 17:11:46 78° W 17:17:22 10° S
Meteor 2-21 4.3 17:06:35 10° N 17:12:41 72° E 17:18:42 10° SSE
Cosmos 841 Rocket 3.6 17:08:09 10° S 17:13:11 55° ESE 17:17:15 16° NNE
Cosmos 1812 3.2 17:11:26 10° SSE 17:14:59 37° E 17:16:32 26° NE
Cosmos 1937 Rocket 3.5 17:10:39 10° NNW 17:16:00 89° WSW 17:21:20 10° SSE
SL-16 R/B 3.3 17:12:06 10° N 17:16:34 23° NE 17:17:26 22° ENE
Cosmos 1634 Rocket 4.0 17:11:07 10° S 17:17:24 74° E 17:23:44 10° NNE
Cosmos 1633 Rocket 3.4 17:14:52 10° N 17:19:00 39° ENE 17:23:06 10° SE
USA 307 4.0 17:15:55 10° WNW 17:19:45 31° N 17:21:20 24° NE
YAOGAN 1 4.2 17:22:20 18° NNE 17:22:20 18° NNE 17:23:50 10° N
Cosmos 2082 Rocket 2.4 17:15:13 10° S 17:20:43 53° ESE 17:24:27 20° NE
USA 229 DEB 4.3 17:13:34 10° NW 17:20:52 68° WSW 17:28:36 10° SSE
USA 229 4.3 17:13:39 10° NW 17:20:58 69° SW 17:28:41 10° SSE
Cosmos 2026 Rocket 4.0 17:18:21 10° N 17:24:32 86° W 17:30:37 10° S
Cosmos 2333 Rocket 4.3 17:23:26 10° NNE 17:24:11 10° NNE 17:24:11 10° NNE
ATLAS 2AS CENTAUR R/B 4.4 17:23:44 10° NW 17:29:26 22° N 17:33:27 14° NNE
Okean O Rocket 1.6 17:25:17 10° SSE 17:29:38 57° ENE 17:34:01 10° N
USA 276 4.4 17:27:19 10° W 17:29:51 23° SW 17:32:23 10° SSE
Cosmos 372 Rocket 3.9 17:25:04 10° NNW 17:30:20 80° ENE 17:35:35 10° SSE
Cosmos 2278 3.7 17:25:09 10° NNW 17:30:49 59° ENE 17:36:25 10° SE
ATLAS CENTAUR R/B 4.0 17:32:26 10° NW 17:33:55 11° NNW 17:35:26 10° N
Cosmos 1151 Rocket 3.0 17:31:36 10° S 17:35:51 60° E 17:38:08 26° NNE
Cosmos 1782 3.0 17:31:56 10° SSW 17:35:54 72° W 17:39:44 11° N
Cosmos 1655 Rocket 4.3 17:30:55 10° N 17:37:00 43° ENE 17:43:00 10° SE
USA 234 3.9 17:31:40 10° SSE 17:38:04 55° SW 17:44:28 10° WNW
COSMOS 2406 3.4 17:32:40 10° SSW 17:38:24 74° WNW 17:43:05 16° NNE
COSMOS 2455 2.8 17:34:13 10° SSW 17:40:14 81° ESE 17:43:55 25° NE
USA 308 3.9 17:38:31 10° WNW 17:42:21 31° N 17:42:51 30° NNE
ARGOS 3.0 17:37:55 10° SSE 17:43:20 78° ENE 17:48:45 10° NNW
Cosmos 1666 Rocket 3.4 17:39:28 10° N 17:43:57 85° E 17:48:21 10° S
Cosmos 1833 Rocket 3.4 17:39:34 10° SW 17:45:02 52° WNW 17:49:48 14° NNE
Cosmos 2180 Rocket 4.5 17:42:00 10° S 17:48:14 63° E 17:54:27 10° NNE
Meteor 2-6 Rocket 4.2 17:44:19 10° S 17:50:00 60° E 17:53:25 24° NNE
Cosmos 1328 Rocket 3.5 17:45:49 10° S 17:50:11 61° E 17:50:52 53° NE
ISS -3.7 17:46:57 10° WNW 17:50:10 79° WNW 17:50:10 79° WNW
CZ-4 R/B 4.4 17:50:01 10° SSE 17:54:08 86° WSW 17:58:18 10° NNW
Cosmos 2219 Rocket 4.3 17:51:55 10° N 17:52:22 11° NNE 17:52:22 11° NNE
SKYMED 2 3.6 17:53:45 25° N 17:56:15 80° WNW 18:00:35 10° SSW
Lacrosse 5 rocket 2.2 17:53:37 10° NW 17:56:30 35° N 17:56:30 35° N
CZ-4B R/B 3.6 17:54:58 10° S 18:00:21 63° WSW 18:05:41 10° NNW
Cosmos 1570 Rocket 3.8 17:55:21 10° SSW 18:00:35 75° ESE 18:02:05 47° NE
Landsat 5 3.2 18:00:26 79° ENE 18:00:37 82° ESE 18:04:37 10° SSW
Cosmos 2298 Rocket 4.2 17:55:31 10° NNW 18:00:27 50° NE 18:00:27 50° NE
Meteor 2-8 Rocket 4.3 17:55:16 10° S 18:01:22 75° E 18:07:33 10° NNE
ATLAS CENTAUR R/B 2.8 17:53:55 10° WSW 18:02:08 53° NW 18:03:21 41° NNE
SL-08 RB Rocket 3.6 17:58:31 10° SSE 18:03:11 84° ENE 18:07:48 10° NNW
GEOS 3 Rocket 3.5 18:02:08 50° ESE 18:03:24 70° NE 18:08:35 10° NW
CZ-2C R/B 2.7 17:59:23 12° N 18:04:14 74° WNW 18:09:22 10° SSW
Cosmos 540 Rocket 4.4 17:59:49 10° SW 18:04:41 44° WNW 18:08:24 17° N
Meteor 1-10 Rocket 4.2 18:02:21 10° S 18:08:03 62° E 18:09:02 54° NE
Cosmos 1814 Rocket 3.9 18:03:05 10° SSW 18:08:20 83° WNW 18:10:08 42° NNE
Meteor 1-11 Rocket 3.8 18:02:54 10° N 18:07:51 53° NE 18:07:51 53° NE
Cosmos 1818 3.5 18:03:08 10° NNW 18:08:37 66° NE 18:09:02 63° ENE
USA 305 4.1 18:05:49 10° NW 18:08:56 32° NNW 18:08:56 32° NNW
Cosmos 44 Rocket 3.4 18:07:27 10° NNW 18:11:47 59° N 18:11:47 59° N
CZ-4C R/B 3.0 18:05:33 10° NW 18:12:49 85° SW 18:20:10 15° SSE
Feng Yun 1-1 Rocket 4.4 18:13:12 10° SSE 18:19:08 83° WSW 18:25:03 10° NNW
Cosmos 2360 Rocket 3.8 18:19:54 10° NNW 18:22:13 21° N 18:22:13 21° N
Cosmos 2208 Rocket 4.2 18:27:57 10° SSW 18:33:21 74° WNW 18:33:46 70° NNW
H-2A R/B 4.3 18:30:18 10° SSW 18:34:27 24° W 18:38:33 10° NW
COSMO-SKYMED 1 4.5 18:42:21 21° NNW 18:44:07 27° WNW 18:47:47 10° WSW
Cosmos 2322 Rocket 3.3 18:38:40 10° NNW 18:41:55 35° N 18:41:55 35° N
USA 267 4.0 18:45:34 38° N 18:46:31 40° N 18:52:30 10° WNW
Cosmos 1980 Rocket 4.2 18:45:51 10° NW 18:50:29 27° WSW 18:55:06 10° SSW
Cosmos 2266 Rocket 4.4 18:45:00 10° NNW 18:51:17 63° W 18:57:35 10° S
SL-16 R/B 3.1 18:55:37 10° NNW 18:59:21 42° NW 18:59:21 42° NW
Cosmos 2082 Rocket 3.7 19:00:08 10° WSW 19:05:05 30° NW 19:06:21 27° NNW
Okean O Rocket 4.4 19:03:30 10° SW 19:06:20 17° W 19:09:12 10° NW
Cosmos 2333 Rocket 4.5 19:05:19 10° NNW 19:06:11 14° N 19:06:11 14° N
ATLAS 2AS CENTAUR R/B 4.4 19:16:49 10° NW 19:20:53 24° N 19:20:53 24° N
